User: anonymous   Login
Location: Unspecified
(0.0000°N, 0.0000°E)
Time: 22:46:00
(UTC+00:00)
Language:

NOSS 7 (D) - Orbit

View from above orbital plane
View from above orbital plane
View from above satellite
View from above satellite

Ground track
Ground track

The orbit data is extracted from the following two-line orbital elements,

1 16623U 86014D   18245.05272167 0.00000700  00000-0  76917-4 0    01
2 16623  63.3015 117.1895 0904086  64.4632 295.5368 13.45586527    06
Epoch (UTC): 02 September 2018 01:15:55
Eccentricity: 0.0904086
inclination: 63.3015°
perigee height: 413 km
apogee height: 1763 km
right ascension of ascending node: 117.1895°
argument of perigee: 64.4632°
revolutions per day: 13.45586527
mean anomaly at epoch: 295.5368°
orbit number at epoch: 0

The dashed part of the orbit path shows where the satellite is in the earth's shadow,  

DLR